Year,Month,Day,Hour,Minute,Value (Times are PST for temperature in C)
2010,01,24,00,00,6.80
2010,01,24,00,01,6.80
2010,01,24,00,02,6.80
2010,01,24,00,03,6.80
2010,01,24,00,04,6.80
2010,01,24,00,05,6.80
2010,01,24,00,06,6.80
2010,01,24,00,07,6.80
2010,01,24,00,08,6.80
2010,01,24,00,09,6.80
2010,01,24,00,10,6.80
2010,01,24,00,11,6.80
2010,01,24,00,12,6.80
2010,01,24,00,13,6.80
2010,01,24,00,14,6.80
2010,01,24,00,15,6.80
2010,01,24,00,16,6.80
2010,01,24,00,17,6.80
2010,01,24,00,18,6.80
2010,01,24,00,19,6.80
2010,01,24,00,20,6.80
2010,01,24,00,21,6.80
2010,01,24,00,22,6.80
2010,01,24,00,23,6.80
2010,01,24,00,24,6.80
2010,01,24,00,25,6.80
2010,01,24,00,26,6.80
2010,01,24,00,27,6.80
2010,01,24,00,28,6.80
2010,01,24,00,29,6.80
2010,01,24,00,30,6.80
2010,01,24,00,31,6.80
2010,01,24,00,32,6.80
2010,01,24,00,33,6.80
2010,01,24,00,34,6.80
2010,01,24,00,35,6.80
2010,01,24,00,36,6.80
2010,01,24,00,37,6.80
2010,01,24,00,38,6.70
2010,01,24,00,39,6.70
2010,01,24,00,40,6.70
2010,01,24,00,41,6.70
2010,01,24,00,42,6.70
2010,01,24,00,43,6.70
2010,01,24,00,44,6.70
2010,01,24,00,45,6.70
2010,01,24,00,46,6.70
2010,01,24,00,47,6.70
2010,01,24,00,48,6.70
2010,01,24,00,49,6.70
2010,01,24,00,50,6.70
2010,01,24,00,51,6.70
2010,01,24,00,52,6.70
2010,01,24,00,53,6.70
2010,01,24,00,54,6.70
2010,01,24,00,55,6.70
2010,01,24,00,56,6.70
2010,01,24,00,57,6.70
2010,01,24,00,58,6.80
2010,01,24,00,59,6.80
2010,01,24,01,00,6.80
2010,01,24,01,01,6.80
2010,01,24,01,02,6.80
2010,01,24,01,03,6.80
2010,01,24,01,04,6.80
2010,01,24,01,05,6.80
2010,01,24,01,06,6.80
2010,01,24,01,07,6.80
2010,01,24,01,08,6.80
2010,01,24,01,09,6.80
2010,01,24,01,10,6.80
2010,01,24,01,11,6.80
2010,01,24,01,12,6.80
2010,01,24,01,13,6.80
2010,01,24,01,14,6.80
2010,01,24,01,15,6.80
2010,01,24,01,16,6.80
2010,01,24,01,17,6.80
2010,01,24,01,18,6.90
2010,01,24,01,19,6.90
2010,01,24,01,20,6.90
2010,01,24,01,21,6.90
2010,01,24,01,22,6.90
2010,01,24,01,23,6.90
2010,01,24,01,24,6.90
2010,01,24,01,25,6.90
2010,01,24,01,26,6.90
2010,01,24,01,27,6.90
2010,01,24,01,28,6.90
2010,01,24,01,29,6.90
2010,01,24,01,30,6.90
2010,01,24,01,31,6.90
2010,01,24,01,32,6.90
2010,01,24,01,33,6.90
2010,01,24,01,34,6.90
2010,01,24,01,35,6.90
2010,01,24,01,36,6.90
2010,01,24,01,37,6.80
2010,01,24,01,38,6.80
2010,01,24,01,39,6.80
2010,01,24,01,40,6.80
2010,01,24,01,41,6.80
2010,01,24,01,42,6.80
2010,01,24,01,43,6.80
2010,01,24,01,44,6.80
2010,01,24,01,45,6.80
2010,01,24,01,46,6.80
2010,01,24,01,47,6.80
2010,01,24,01,48,6.80
2010,01,24,01,49,6.80
2010,01,24,01,50,6.80
2010,01,24,01,51,6.80
2010,01,24,01,52,6.80
2010,01,24,01,53,6.80
2010,01,24,01,54,6.80
2010,01,24,01,55,6.80
2010,01,24,01,56,6.80
2010,01,24,01,57,6.80
2010,01,24,01,58,6.80
2010,01,24,01,59,6.80
2010,01,24,02,00,6.80
2010,01,24,02,01,6.80
2010,01,24,02,02,6.80
2010,01,24,02,03,6.80
2010,01,24,02,04,6.80
2010,01,24,02,05,6.80
2010,01,24,02,06,6.80
2010,01,24,02,07,6.80
2010,01,24,02,08,6.80
2010,01,24,02,09,6.80
2010,01,24,02,10,6.80
2010,01,24,02,11,6.80
2010,01,24,02,12,6.80
2010,01,24,02,13,6.80
2010,01,24,02,14,6.80
2010,01,24,02,15,6.80
2010,01,24,02,16,6.80
2010,01,24,02,17,6.80
2010,01,24,02,18,6.80
2010,01,24,02,19,6.80
2010,01,24,02,20,6.80
2010,01,24,02,21,6.80
2010,01,24,02,22,6.80
2010,01,24,02,23,6.80
2010,01,24,02,24,6.80
2010,01,24,02,25,6.80
2010,01,24,02,26,6.80
2010,01,24,02,27,6.80
2010,01,24,02,28,6.80
2010,01,24,02,29,6.80
2010,01,24,02,30,6.80
2010,01,24,02,31,6.80
2010,01,24,02,32,6.80
2010,01,24,02,33,6.80
2010,01,24,02,34,6.70
2010,01,24,02,35,6.70
2010,01,24,02,36,6.70
2010,01,24,02,37,6.70
2010,01,24,02,38,6.70
2010,01,24,02,39,6.70
2010,01,24,02,40,6.70
2010,01,24,02,41,6.70
2010,01,24,02,42,6.70
2010,01,24,02,43,6.70
2010,01,24,02,44,6.70
2010,01,24,02,45,6.70
2010,01,24,02,46,6.70
2010,01,24,02,47,6.70
2010,01,24,02,48,6.70
2010,01,24,02,49,6.70
2010,01,24,02,50,6.60
2010,01,24,02,51,6.60
2010,01,24,02,52,6.60
2010,01,24,02,53,6.60
2010,01,24,02,54,6.60
2010,01,24,02,55,6.60
2010,01,24,02,56,6.60
2010,01,24,02,57,6.70
2010,01,24,02,58,6.70
2010,01,24,02,59,6.70
2010,01,24,03,00,6.70
2010,01,24,03,01,6.70
2010,01,24,03,02,6.70
2010,01,24,03,03,6.70
2010,01,24,03,04,6.70
2010,01,24,03,05,6.70
2010,01,24,03,06,6.70
2010,01,24,03,07,6.70
2010,01,24,03,08,6.70
2010,01,24,03,09,6.70
2010,01,24,03,10,6.60
2010,01,24,03,11,6.60
2010,01,24,03,12,6.70
2010,01,24,03,13,6.70
2010,01,24,03,14,6.70
2010,01,24,03,15,6.70
2010,01,24,03,16,6.70
2010,01,24,03,17,6.70
2010,01,24,03,18,6.70
2010,01,24,03,19,6.70
2010,01,24,03,20,6.70
2010,01,24,03,21,6.70
2010,01,24,03,22,6.70
2010,01,24,03,23,6.70
2010,01,24,03,24,6.70
2010,01,24,03,25,6.70
2010,01,24,03,26,6.70
2010,01,24,03,27,6.70
2010,01,24,03,28,6.70
2010,01,24,03,29,6.70
2010,01,24,03,30,6.70
2010,01,24,03,31,6.70
2010,01,24,03,32,6.70
2010,01,24,03,33,6.70
2010,01,24,03,34,6.70
2010,01,24,03,35,6.70
2010,01,24,03,36,6.70
2010,01,24,03,37,6.70
2010,01,24,03,38,6.60
2010,01,24,03,39,6.60
2010,01,24,03,40,6.60
2010,01,24,03,41,6.60
2010,01,24,03,42,6.60
2010,01,24,03,43,6.60
2010,01,24,03,44,6.60
2010,01,24,03,45,6.60
2010,01,24,03,46,6.60
2010,01,24,03,47,6.60
2010,01,24,03,48,6.60
2010,01,24,03,49,6.60
2010,01,24,03,50,6.60
2010,01,24,03,51,6.60
2010,01,24,03,52,6.60
2010,01,24,03,53,6.60
2010,01,24,03,54,6.60
2010,01,24,03,55,6.60
2010,01,24,03,56,6.60
2010,01,24,03,57,6.60
2010,01,24,03,58,6.60
2010,01,24,03,59,6.60
2010,01,24,04,00,6.60
2010,01,24,04,01,6.60
2010,01,24,04,02,6.60
2010,01,24,04,03,6.60
2010,01,24,04,04,6.60
2010,01,24,04,05,6.60
2010,01,24,04,06,6.60
2010,01,24,04,07,6.60
2010,01,24,04,08,6.60
2010,01,24,04,09,6.60
2010,01,24,04,10,6.60
2010,01,24,04,11,6.60
2010,01,24,04,12,6.60
2010,01,24,04,13,6.60
2010,01,24,04,14,6.60
2010,01,24,04,15,6.60
2010,01,24,04,16,6.60
2010,01,24,04,17,6.60
2010,01,24,04,18,6.60
2010,01,24,04,19,6.60
2010,01,24,04,20,6.60
2010,01,24,04,21,6.60
2010,01,24,04,22,6.60
2010,01,24,04,23,6.60
2010,01,24,04,24,6.60
2010,01,24,04,25,6.60
2010,01,24,04,26,6.50
2010,01,24,04,27,6.40
2010,01,24,04,28,6.40
2010,01,24,04,29,6.40
2010,01,24,04,30,6.40
2010,01,24,04,31,6.40
2010,01,24,04,32,6.40
2010,01,24,04,33,6.40
2010,01,24,04,34,6.40
2010,01,24,04,35,6.40
2010,01,24,04,36,6.40
2010,01,24,04,37,6.40
2010,01,24,09,28,6.30
2010,01,24,09,29,6.30
2010,01,24,09,30,6.30
2010,01,24,09,31,6.30
2010,01,24,09,32,6.30
2010,01,24,09,33,6.30
2010,01,24,09,34,6.30
2010,01,24,09,35,6.30
2010,01,24,09,36,6.30
2010,01,24,09,37,6.30
2010,01,24,09,38,6.30
2010,01,24,09,39,6.30
2010,01,24,09,40,6.30
2010,01,24,09,41,6.30
2010,01,24,09,42,6.30
2010,01,24,09,43,6.30
2010,01,24,09,44,6.30
2010,01,24,09,45,6.30
2010,01,24,09,46,6.30
2010,01,24,09,47,6.30
2010,01,24,09,48,6.30
2010,01,24,09,49,6.30
2010,01,24,09,50,6.20
2010,01,24,09,51,6.20
2010,01,24,09,52,6.20
2010,01,24,09,53,6.20
2010,01,24,09,54,6.20
2010,01,24,09,55,6.20
2010,01,24,09,56,6.20
2010,01,24,09,57,6.20
2010,01,24,09,58,6.20
2010,01,24,09,59,6.20
2010,01,24,10,00,6.20
2010,01,24,10,01,6.20
2010,01,24,10,02,6.20
2010,01,24,10,03,6.20
2010,01,24,10,04,6.20
2010,01,24,10,05,6.20
2010,01,24,10,06,6.20
2010,01,24,10,07,6.20
2010,01,24,10,08,6.20
2010,01,24,10,09,6.20
2010,01,24,10,10,6.20
2010,01,24,10,11,6.20
2010,01,24,10,12,6.20
2010,01,24,10,13,6.20
2010,01,24,10,14,6.20
2010,01,24,10,15,6.20
2010,01,24,10,16,6.20
2010,01,24,10,17,6.20
2010,01,24,10,18,6.20
2010,01,24,10,19,6.30
2010,01,24,10,20,6.30
2010,01,24,10,21,6.30
2010,01,24,10,22,6.30
2010,01,24,10,23,6.30
2010,01,24,10,24,6.40
2010,01,24,10,25,6.40
2010,01,24,10,26,6.40
2010,01,24,10,27,6.40
2010,01,24,10,28,6.40
2010,01,24,10,29,6.40
2010,01,24,10,30,6.40
2010,01,24,10,31,6.40
2010,01,24,10,32,6.40
2010,01,24,10,33,6.40
2010,01,24,10,34,6.40
2010,01,24,10,35,6.40
2010,01,24,10,36,6.40
2010,01,24,10,37,6.40
2010,01,24,10,38,6.40
2010,01,24,10,39,6.40
2010,01,24,10,40,6.40
2010,01,24,10,41,6.40
2010,01,24,10,42,6.40
2010,01,24,10,43,6.40
2010,01,24,10,44,6.40
2010,01,24,10,45,6.40
2010,01,24,10,46,6.40
2010,01,24,10,47,6.40
2010,01,24,10,48,6.50
2010,01,24,10,49,6.60
2010,01,24,10,50,6.60
2010,01,24,10,51,6.60
2010,01,24,10,52,6.60
2010,01,24,10,53,6.60
2010,01,24,10,54,6.60
2010,01,24,10,55,6.60
2010,01,24,10,56,6.70
2010,01,24,10,57,6.70
2010,01,24,10,58,6.70
2010,01,24,10,59,6.70
2010,01,24,11,00,6.70
2010,01,24,11,01,6.70
2010,01,24,11,02,6.70
2010,01,24,11,03,6.80
2010,01,24,11,04,6.80
2010,01,24,11,05,6.80
2010,01,24,11,06,6.80
2010,01,24,11,07,6.80
2010,01,24,11,08,6.80
2010,01,24,11,09,6.80
2010,01,24,11,10,6.80
2010,01,24,11,11,6.80
2010,01,24,11,12,6.80
2010,01,24,11,13,6.80
2010,01,24,11,14,6.80
2010,01,24,11,15,6.80
2010,01,24,11,16,6.80
2010,01,24,11,17,6.80
2010,01,24,11,18,6.80
2010,01,24,11,19,6.80
2010,01,24,11,20,6.80
2010,01,24,11,21,6.70
2010,01,24,11,22,6.70
2010,01,24,11,23,6.70
2010,01,24,11,24,6.70
2010,01,24,11,25,6.70
2010,01,24,11,26,6.70
2010,01,24,11,27,6.60
2010,01,24,11,28,6.60
2010,01,24,11,29,6.60
2010,01,24,11,30,6.60
2010,01,24,11,31,6.60
2010,01,24,11,32,6.60
2010,01,24,11,33,6.70
2010,01,24,11,34,6.70
2010,01,24,11,35,6.70
2010,01,24,11,36,6.70
2010,01,24,11,37,6.70
2010,01,24,11,38,6.70
2010,01,24,11,39,6.70
2010,01,24,11,40,6.70
2010,01,24,11,41,6.70
2010,01,24,11,42,6.70
2010,01,24,11,43,6.70
2010,01,24,11,44,6.80
2010,01,24,11,45,6.80
2010,01,24,11,46,6.80
2010,01,24,11,47,6.80
2010,01,24,11,48,6.80
2010,01,24,11,49,6.80
2010,01,24,11,50,6.80
2010,01,24,11,51,6.80
2010,01,24,11,52,6.80
2010,01,24,11,53,6.80
2010,01,24,11,54,6.80
2010,01,24,11,55,6.80
2010,01,24,11,56,6.80
2010,01,24,11,57,6.80
2010,01,24,11,58,6.80
2010,01,24,11,59,6.80
2010,01,24,12,00,6.80
2010,01,24,12,01,6.80
2010,01,24,12,02,6.80
2010,01,24,12,03,6.80
2010,01,24,12,04,6.80
2010,01,24,12,05,6.80
2010,01,24,12,06,6.90
2010,01,24,12,07,6.90
2010,01,24,12,08,6.90
2010,01,24,12,09,7.00
2010,01,24,12,10,7.00
2010,01,24,12,11,7.00
2010,01,24,12,12,7.10
2010,01,24,12,13,7.10
2010,01,24,12,14,7.10
2010,01,24,12,15,7.10
2010,01,24,12,16,7.10
2010,01,24,12,17,7.10
2010,01,24,12,18,7.10
2010,01,24,12,19,7.00
2010,01,24,12,20,7.00
2010,01,24,12,21,7.00
2010,01,24,12,22,7.00
2010,01,24,12,23,6.90
2010,01,24,12,24,6.90
2010,01,24,12,25,6.90
2010,01,24,12,26,6.90
2010,01,24,12,27,6.90
2010,01,24,12,28,6.80
2010,01,24,12,29,6.80
2010,01,24,12,30,6.80
2010,01,24,12,31,6.80
2010,01,24,12,32,6.80
2010,01,24,12,33,6.80
2010,01,24,12,34,6.80
2010,01,24,12,35,6.80
2010,01,24,12,36,6.70
2010,01,24,12,37,6.70
2010,01,24,12,38,6.70
2010,01,24,12,39,6.70
2010,01,24,12,40,6.70
2010,01,24,12,41,6.70
2010,01,24,12,42,6.70
2010,01,24,12,43,6.70
2010,01,24,12,44,6.70
2010,01,24,12,45,6.70
2010,01,24,12,46,6.70
2010,01,24,12,47,6.60
2010,01,24,12,48,6.60
2010,01,24,12,49,6.60
2010,01,24,12,50,6.60
2010,01,24,12,51,6.60
2010,01,24,12,52,6.60
2010,01,24,12,53,6.50
2010,01,24,12,54,6.40
2010,01,24,12,55,6.40
2010,01,24,12,56,6.40
2010,01,24,12,57,6.40
2010,01,24,12,58,6.40
2010,01,24,12,59,6.40
2010,01,24,13,00,6.40
2010,01,24,13,01,6.40
2010,01,24,13,02,6.40
2010,01,24,13,03,6.40
2010,01,24,13,04,6.40
2010,01,24,13,05,6.50
2010,01,24,13,06,6.60
2010,01,24,13,07,6.60
2010,01,24,13,08,6.60
2010,01,24,13,09,6.60
2010,01,24,13,10,6.60
2010,01,24,13,11,6.60
2010,01,24,13,12,6.60
2010,01,24,13,13,6.60
2010,01,24,13,14,6.60
2010,01,24,13,15,6.60
2010,01,24,13,16,6.70
2010,01,24,13,17,6.70
2010,01,24,13,18,6.70
2010,01,24,13,19,6.70
2010,01,24,13,20,6.80
2010,01,24,13,21,6.80
2010,01,24,13,22,6.80
2010,01,24,13,23,6.80
2010,01,24,13,24,6.80
2010,01,24,13,25,6.80
2010,01,24,13,26,6.80
2010,01,24,13,27,6.90
2010,01,24,13,28,6.90
2010,01,24,13,29,6.90
2010,01,24,13,30,6.90
2010,01,24,13,31,6.90
2010,01,24,13,32,6.90
2010,01,24,13,33,6.90
2010,01,24,13,34,6.90
2010,01,24,13,35,6.90
2010,01,24,13,36,6.90
2010,01,24,13,37,6.90
2010,01,24,13,38,6.90
2010,01,24,13,39,6.90
2010,01,24,13,40,6.90
2010,01,24,13,41,6.90
2010,01,24,13,42,6.90
2010,01,24,13,43,6.90
2010,01,24,13,44,6.80
2010,01,24,13,45,6.80
2010,01,24,13,46,6.80
2010,01,24,13,47,6.80
2010,01,24,13,48,6.80
2010,01,24,13,49,6.80
2010,01,24,13,50,6.80
2010,01,24,13,51,6.80
2010,01,24,13,52,6.80
2010,01,24,13,53,6.80
2010,01,24,13,54,6.80
2010,01,24,13,55,6.80
2010,01,24,13,56,6.80
2010,01,24,13,57,6.80
2010,01,24,13,58,6.80
2010,01,24,13,59,6.80
2010,01,24,14,00,6.80
2010,01,24,14,01,6.70
2010,01,24,14,02,6.70
2010,01,24,14,03,6.70
2010,01,24,14,04,6.70
2010,01,24,14,05,6.70
2010,01,24,14,06,6.70
2010,01,24,14,07,6.60
2010,01,24,14,08,6.60
2010,01,24,14,09,6.60
2010,01,24,14,10,6.60
2010,01,24,14,11,6.60
2010,01,24,14,12,6.60
2010,01,24,14,13,6.60
2010,01,24,14,14,6.60
2010,01,24,14,15,6.60
2010,01,24,14,16,6.60
2010,01,24,14,17,6.50
2010,01,24,14,18,6.40
2010,01,24,14,19,6.40
2010,01,24,14,20,6.40
2010,01,24,14,21,6.40
2010,01,24,14,22,6.40
2010,01,24,14,23,6.50
2010,01,24,14,24,6.60
2010,01,24,14,25,6.60
2010,01,24,14,26,6.50
2010,01,24,14,27,6.50
2010,01,24,14,28,6.60
2010,01,24,14,29,6.60
2010,01,24,14,30,6.60
2010,01,24,14,31,6.60
2010,01,24,14,32,6.60
2010,01,24,14,33,6.60
2010,01,24,14,34,6.60
2010,01,24,14,35,6.60
2010,01,24,14,36,6.60
2010,01,24,14,37,6.60
2010,01,24,14,38,6.60
2010,01,24,14,39,6.60
2010,01,24,14,40,6.60
2010,01,24,14,41,6.60
2010,01,24,14,42,6.60
2010,01,24,14,43,6.60
2010,01,24,14,44,6.60
2010,01,24,14,45,6.60
2010,01,24,14,46,6.60
2010,01,24,14,47,6.60
2010,01,24,14,48,6.60
2010,01,24,14,49,6.60
2010,01,24,14,50,6.60
2010,01,24,14,51,6.60
2010,01,24,14,52,6.60
2010,01,24,14,53,6.60
2010,01,24,14,54,6.70
2010,01,24,14,55,6.70
2010,01,24,14,56,6.70
2010,01,24,14,57,6.70
2010,01,24,14,58,6.70
2010,01,24,14,59,6.70
2010,01,24,15,00,6.70
2010,01,24,15,01,6.70
2010,01,24,15,02,6.70
2010,01,24,15,03,6.70
2010,01,24,15,04,6.70
2010,01,24,15,05,6.60
2010,01,24,15,06,6.60
2010,01,24,15,07,6.60
2010,01,24,15,08,6.60
2010,01,24,15,09,6.60
2010,01,24,15,10,6.60
2010,01,24,15,11,6.60
2010,01,24,15,12,6.60
2010,01,24,15,13,6.60
2010,01,24,15,14,6.50
2010,01,24,15,15,6.40
2010,01,24,15,16,6.40
2010,01,24,15,17,6.40
2010,01,24,15,18,6.40
2010,01,24,15,19,6.50
2010,01,24,15,20,6.60
2010,01,24,15,21,6.50
2010,01,24,15,22,6.40
2010,01,24,15,23,6.40
2010,01,24,15,24,6.40
2010,01,24,15,25,6.40
2010,01,24,15,26,6.40
2010,01,24,15,27,6.40
2010,01,24,15,28,6.40
2010,01,24,15,29,6.40
2010,01,24,15,30,6.40
2010,01,24,15,31,6.40
2010,01,24,15,32,6.40
2010,01,24,15,33,6.40
2010,01,24,15,34,6.40
2010,01,24,15,35,6.40
2010,01,24,15,36,6.40
2010,01,24,15,37,6.40
2010,01,24,15,38,6.40
2010,01,24,15,39,6.40
2010,01,24,15,40,6.40
2010,01,24,15,41,6.40
2010,01,24,15,42,6.40
2010,01,24,15,43,6.40
2010,01,24,15,44,6.40
2010,01,24,15,45,6.40
2010,01,24,15,46,6.40
2010,01,24,15,47,6.40
2010,01,24,15,48,6.40
2010,01,24,15,49,6.40
2010,01,24,15,50,6.40
2010,01,24,15,51,6.40
2010,01,24,15,52,6.40
2010,01,24,15,53,6.40
2010,01,24,15,54,6.40
2010,01,24,15,55,6.40
2010,01,24,15,56,6.50
2010,01,24,15,57,6.60
2010,01,24,15,58,6.60
2010,01,24,15,59,6.60
2010,01,24,16,00,6.60
2010,01,24,16,01,6.60
2010,01,24,16,02,6.60
2010,01,24,16,03,6.60
2010,01,24,16,04,6.60
2010,01,24,16,05,6.60
2010,01,24,16,06,6.60
2010,01,24,16,07,6.60
2010,01,24,16,08,6.60
2010,01,24,16,09,6.60
2010,01,24,16,10,6.60
2010,01,24,16,11,6.60
2010,01,24,16,12,6.60
2010,01,24,16,13,6.60
2010,01,24,16,14,6.60
2010,01,24,16,15,6.60
2010,01,24,16,16,6.60
2010,01,24,16,17,6.60
2010,01,24,16,18,6.60
2010,01,24,16,19,6.60
2010,01,24,16,20,6.60
2010,01,24,16,21,6.60
2010,01,24,16,22,6.60
2010,01,24,16,23,6.60
2010,01,24,16,24,6.60
2010,01,24,16,25,6.50
2010,01,24,16,26,6.40
2010,01,24,16,27,6.50
2010,01,24,16,28,6.60
2010,01,24,16,29,6.60
2010,01,24,16,30,6.60
2010,01,24,16,31,6.60
2010,01,24,16,32,6.60
2010,01,24,16,33,6.50
2010,01,24,16,34,6.40
2010,01,24,16,35,6.40
2010,01,24,16,36,6.40
2010,01,24,16,37,6.40
2010,01,24,16,38,6.40
2010,01,24,16,39,6.40
2010,01,24,16,40,6.40
2010,01,24,16,41,6.40
2010,01,24,16,42,6.50
2010,01,24,16,43,6.40
2010,01,24,16,44,6.40
2010,01,24,16,45,6.40
2010,01,24,16,46,6.40
2010,01,24,16,47,6.40
2010,01,24,16,48,6.40
2010,01,24,16,49,6.40
2010,01,24,16,50,6.40
2010,01,24,16,51,6.40
2010,01,24,16,52,6.40
2010,01,24,16,53,6.40
2010,01,24,16,54,6.40
2010,01,24,16,55,6.40
2010,01,24,16,56,6.40
2010,01,24,16,57,6.40
2010,01,24,16,58,6.40
2010,01,24,16,59,6.40
2010,01,24,17,00,6.40
2010,01,24,17,01,6.50
2010,01,24,17,02,6.50
2010,01,24,17,03,6.60
2010,01,24,17,04,6.60
2010,01,24,17,05,6.60
2010,01,24,17,06,6.60
2010,01,24,17,07,6.60
2010,01,24,17,08,6.60
2010,01,24,17,09,6.60
2010,01,24,17,10,6.60
2010,01,24,17,11,6.60
2010,01,24,17,12,6.60
2010,01,24,17,13,6.60
2010,01,24,17,14,6.60
2010,01,24,17,15,6.60
2010,01,24,17,16,6.60
2010,01,24,17,17,6.60
2010,01,24,17,18,6.60
2010,01,24,17,19,6.60
2010,01,24,17,20,6.60
2010,01,24,17,21,6.60
2010,01,24,17,22,6.60
2010,01,24,17,23,6.60
2010,01,24,17,24,6.60
2010,01,24,17,25,6.60
2010,01,24,17,26,6.60
2010,01,24,17,27,6.60
2010,01,24,17,28,6.60
2010,01,24,17,29,6.60
2010,01,24,17,30,6.60
2010,01,24,17,31,6.60
2010,01,24,17,32,6.60
2010,01,24,17,33,6.60
2010,01,24,17,34,6.60
2010,01,24,17,35,6.60
2010,01,24,17,36,6.60
2010,01,24,17,37,6.60
2010,01,24,17,38,6.60
2010,01,24,17,39,6.60
2010,01,24,17,40,6.60
2010,01,24,17,41,6.60
2010,01,24,17,42,6.60
2010,01,24,17,43,6.60
2010,01,24,17,44,6.60
2010,01,24,17,45,6.60
2010,01,24,17,46,6.60
2010,01,24,17,47,6.60
2010,01,24,17,48,6.60
2010,01,24,17,49,6.60
2010,01,24,17,50,6.60
2010,01,24,17,51,6.60
2010,01,24,17,52,6.60
2010,01,24,17,53,6.60
2010,01,24,17,54,6.60
2010,01,24,17,55,6.60
2010,01,24,17,56,6.60
2010,01,24,17,57,6.60
2010,01,24,17,58,6.60
2010,01,24,17,59,6.60
2010,01,24,18,00,6.60
2010,01,24,18,01,6.60
2010,01,24,18,02,6.60
2010,01,24,18,03,6.60
2010,01,24,18,04,6.60
2010,01,24,18,05,6.60
2010,01,24,18,06,6.60
2010,01,24,18,07,6.60
2010,01,24,18,08,6.60
2010,01,24,18,09,6.60
2010,01,24,18,10,6.60
2010,01,24,18,11,6.60
2010,01,24,18,12,6.60
2010,01,24,18,13,6.60
2010,01,24,18,14,6.60
2010,01,24,18,15,6.60
2010,01,24,18,16,6.60
2010,01,24,18,17,6.60
2010,01,24,18,18,6.60
2010,01,24,18,19,6.60
2010,01,24,18,20,6.60
2010,01,24,18,21,6.60
2010,01,24,18,22,6.60
2010,01,24,18,23,6.60
2010,01,24,18,24,6.60
2010,01,24,18,25,6.60
2010,01,24,18,26,6.60
2010,01,24,18,27,6.60
2010,01,24,18,28,6.60
2010,01,24,18,29,6.60
2010,01,24,18,30,6.60
2010,01,24,18,31,6.60
2010,01,24,18,32,6.60
2010,01,24,18,33,6.60
2010,01,24,18,34,6.60
2010,01,24,18,35,6.60
2010,01,24,18,36,6.60
2010,01,24,18,37,6.60
2010,01,24,18,38,6.60
2010,01,24,18,39,6.60
2010,01,24,18,40,6.60
2010,01,24,18,41,6.60
2010,01,24,18,42,6.60
2010,01,24,18,43,6.60
2010,01,24,18,44,6.60
2010,01,24,18,45,6.60
2010,01,24,18,46,6.60
2010,01,24,18,47,6.60
2010,01,24,18,48,6.60
2010,01,24,18,49,6.60
2010,01,24,18,50,6.60
2010,01,24,18,51,6.60
2010,01,24,18,52,6.60
2010,01,24,18,53,6.60
2010,01,24,18,54,6.60
2010,01,24,18,55,6.70
2010,01,24,18,56,6.70
2010,01,24,18,57,6.70
2010,01,24,18,58,6.70
2010,01,24,18,59,6.70
2010,01,24,19,00,6.70
2010,01,24,19,01,6.70
2010,01,24,19,02,6.70
2010,01,24,19,03,6.70
2010,01,24,19,04,6.70
2010,01,24,19,05,6.70
2010,01,24,19,06,6.70
2010,01,24,19,07,6.70
2010,01,24,19,08,6.70
2010,01,24,19,09,6.70
2010,01,24,19,10,6.70
2010,01,24,19,11,6.70
2010,01,24,19,12,6.70
2010,01,24,19,13,6.70
2010,01,24,19,14,6.70
2010,01,24,19,15,6.70
2010,01,24,19,16,6.70
2010,01,24,19,17,6.70
2010,01,24,19,18,6.70
2010,01,24,19,19,6.70
2010,01,24,19,20,6.70
2010,01,24,19,21,6.70
2010,01,24,19,22,6.70
2010,01,24,19,23,6.70
2010,01,24,19,24,6.70
2010,01,24,19,25,6.70
2010,01,24,19,26,6.70
2010,01,24,19,27,6.70
2010,01,24,19,28,6.80
2010,01,24,19,29,6.80
2010,01,24,19,30,6.80
2010,01,24,19,31,6.80
2010,01,24,19,32,6.80
2010,01,24,19,33,6.80
2010,01,24,19,34,6.80
2010,01,24,19,35,6.80
2010,01,24,19,36,6.80
2010,01,24,19,37,6.80
2010,01,24,19,38,6.80
2010,01,24,19,39,6.80
2010,01,24,19,40,6.80
2010,01,24,19,41,6.80
2010,01,24,19,42,6.70
2010,01,24,19,43,6.70
2010,01,24,19,44,6.70
2010,01,24,19,45,6.70
2010,01,24,19,46,6.70
2010,01,24,19,47,6.70
2010,01,24,19,48,6.70
2010,01,24,19,49,6.70
2010,01,24,19,50,6.70
2010,01,24,19,51,6.70
2010,01,24,19,52,6.70
2010,01,24,19,53,6.70
2010,01,24,19,54,6.70
2010,01,24,19,55,6.70
2010,01,24,19,56,6.70
2010,01,24,19,57,6.70
2010,01,24,19,58,6.70
2010,01,24,19,59,6.70
2010,01,24,20,00,6.70
2010,01,24,20,01,6.70
2010,01,24,20,02,6.70
2010,01,24,20,03,6.70
2010,01,24,20,04,6.70
2010,01,24,20,05,6.70
2010,01,24,20,06,6.70
2010,01,24,20,07,6.70
2010,01,24,20,08,6.70
2010,01,24,20,09,6.70
2010,01,24,20,10,6.70
2010,01,24,20,11,6.70
2010,01,24,20,12,6.70
2010,01,24,20,13,6.70
2010,01,24,20,14,6.70
2010,01,24,20,15,6.70
2010,01,24,20,16,6.70
2010,01,24,20,17,6.70
2010,01,24,20,18,6.70
2010,01,24,20,19,6.70
2010,01,24,20,20,6.70
2010,01,24,20,21,6.70
2010,01,24,20,22,6.70
2010,01,24,20,23,6.80
2010,01,24,20,24,6.80
2010,01,24,20,25,6.80
2010,01,24,20,26,6.80
2010,01,24,20,27,6.80
2010,01,24,20,28,6.80
2010,01,24,20,29,6.80
2010,01,24,20,30,6.70
2010,01,24,20,31,6.70
2010,01,24,20,32,6.70
2010,01,24,20,33,6.70
2010,01,24,20,34,6.70
2010,01,24,20,35,6.70
2010,01,24,20,36,6.80
2010,01,24,20,37,6.80
2010,01,24,20,38,6.80
2010,01,24,20,39,6.80
2010,01,24,20,40,6.80
2010,01,24,20,41,6.80
2010,01,24,20,42,6.80
2010,01,24,20,43,6.80
2010,01,24,20,44,6.80
2010,01,24,20,45,6.80
2010,01,24,20,46,6.80
2010,01,24,20,47,6.80
2010,01,24,20,48,6.80
2010,01,24,20,49,6.80
2010,01,24,20,50,6.80
2010,01,24,20,51,6.80
2010,01,24,20,52,6.80
2010,01,24,20,53,6.80
2010,01,24,20,54,6.80
2010,01,24,20,55,6.80
2010,01,24,20,56,6.80
2010,01,24,20,57,6.80
2010,01,24,20,58,6.80
2010,01,24,20,59,6.80
2010,01,24,21,00,6.80
2010,01,24,21,01,6.80
2010,01,24,21,02,6.80
2010,01,24,21,03,6.80
2010,01,24,21,04,6.80
2010,01,24,21,05,6.80
2010,01,24,21,06,6.80
2010,01,24,21,07,6.80
2010,01,24,21,08,6.80
2010,01,24,21,09,6.80
2010,01,24,21,10,6.80
2010,01,24,21,11,6.80
2010,01,24,21,12,6.80
2010,01,24,21,13,6.80
2010,01,24,21,14,6.80
2010,01,24,21,15,6.80
2010,01,24,21,16,6.80
2010,01,24,21,17,6.80
2010,01,24,21,18,6.80
2010,01,24,21,19,6.80
2010,01,24,21,20,6.80
2010,01,24,21,21,6.80
2010,01,24,21,22,6.80
2010,01,24,21,23,6.80
2010,01,24,21,24,6.80
2010,01,24,21,25,6.80
2010,01,24,21,26,6.80
2010,01,24,21,27,6.80
2010,01,24,21,28,6.80
2010,01,24,21,29,6.80
2010,01,24,21,30,6.80
2010,01,24,21,31,6.70
2010,01,24,21,32,6.70
2010,01,24,21,33,6.70
2010,01,24,21,34,6.70
2010,01,24,21,35,6.70
2010,01,24,21,36,6.70
2010,01,24,21,37,6.70
2010,01,24,21,38,6.70
2010,01,24,21,39,6.70
2010,01,24,21,40,6.70
2010,01,24,21,41,6.70
2010,01,24,21,42,6.70
2010,01,24,21,43,6.70
2010,01,24,21,44,6.70
2010,01,24,21,45,6.70
2010,01,24,21,46,6.70
2010,01,24,21,47,6.70
2010,01,24,21,48,6.70
2010,01,24,21,49,6.70
2010,01,24,21,50,6.70
2010,01,24,21,51,6.70
2010,01,24,21,52,6.70
2010,01,24,21,53,6.70
2010,01,24,21,54,6.70
2010,01,24,21,55,6.70
2010,01,24,21,56,6.70
2010,01,24,21,57,6.70
2010,01,24,21,58,6.70
2010,01,24,21,59,6.70
2010,01,24,22,00,6.70
2010,01,24,22,01,6.70
2010,01,24,22,02,6.70
2010,01,24,22,03,6.80
2010,01,24,22,04,6.80
2010,01,24,22,05,6.80
2010,01,24,22,06,6.80
2010,01,24,22,07,6.80
2010,01,24,22,08,6.80
2010,01,24,22,09,6.80
2010,01,24,22,10,6.80
2010,01,24,22,11,6.70
2010,01,24,22,12,6.70
2010,01,24,22,13,6.70
2010,01,24,22,14,6.70
2010,01,24,22,15,6.70
2010,01,24,22,16,6.70
2010,01,24,22,17,6.70
2010,01,24,22,18,6.70
2010,01,24,22,19,6.70
2010,01,24,22,20,6.60
2010,01,24,22,21,6.60
2010,01,24,22,22,6.60
2010,01,24,22,23,6.60
2010,01,24,22,24,6.60
2010,01,24,22,25,6.60
2010,01,24,22,26,6.60
2010,01,24,22,27,6.60
2010,01,24,22,28,6.60
2010,01,24,22,29,6.60
2010,01,24,22,30,6.60
2010,01,24,22,31,6.60
2010,01,24,22,32,6.60
2010,01,24,22,33,6.60
2010,01,24,22,34,6.60
2010,01,24,22,35,6.60
2010,01,24,22,36,6.60
2010,01,24,22,37,6.60
2010,01,24,22,38,6.60
2010,01,24,22,39,6.60
2010,01,24,22,40,6.60
2010,01,24,22,41,6.60
2010,01,24,22,42,6.60
2010,01,24,22,43,6.60
2010,01,24,22,44,6.60
2010,01,24,22,45,6.60
2010,01,24,22,46,6.60
2010,01,24,22,47,6.60
2010,01,24,22,48,6.60
2010,01,24,22,49,6.60
2010,01,24,22,50,6.60
2010,01,24,22,51,6.60
2010,01,24,22,52,6.60
2010,01,24,22,53,6.60
2010,01,24,22,54,6.60
2010,01,24,22,55,6.60
2010,01,24,22,56,6.60